This demonstration page uses our WeatherBlox Daily Observations layout. Learn more.

Left ArrowRight Arrow

Hourly Observations for March 22, 2018

Temp ( °F °C ) Dew Point ( °F °C ) Humidity (%) Winds ( mph kmh ) Pressure ( in mb ) Visibility ( mi km ) Precip ( " mm )
12:32 am 00:32 Cloudy 60 15.6 57 13.9 90 90 S 18 30 29.62 1003 10 16 0.00 0.00
12:43 am 00:43 Cloudy with Light Rain 59 15 56 13.3 90 90 S 28 44 29.62 1003 8 13 0.00 0.03
12:53 am 00:53 Cloudy with Rain 59 15 57 13.9 93 93 S 24 39 29.61 1003 5 8 0.01 0.25
1:03 am 01:03 Cloudy with Light Rain 59 15 57 13.9 93 93 S 24 39 29.62 1003 7 11 0.02 0.51
1:53 am 01:53 Partly Cloudy 58 14.4 55 12.8 90 90 S 12 19 29.60 1003 10 16 0.02 0.51
2:33 am 02:33 Mostly Cloudy 57 13.9 53 11.7 87 87 S 20 31 29.59 1002 10 16 0.00 0.00
2:53 am 02:53 Cloudy 58 14.4 55 12.8 90 90 S 22 35 29.59 1002 10 16 0.00 0.00
3:53 am 03:53 Cloudy 58 14.4 55 12.8 90 90 S 22 35 29.57 1002 10 16 0.00 0.00
4:53 am 04:53 Cloudy 58 14.4 55 12.8 90 90 undefined N/A 29.55 1001 10 16 0.00 0.00
5:53 am 05:53 Cloudy 58 14.4 55 12.8 90 90 S 17 28 29.54 1001 10 16 0.00 0.00
6:20 am 06:20 Cloudy 58 14.4 55 12.8 90 90 S 22 35 29.56 1001 10 16 0.00 0.00
6:50 am 06:50 Cloudy 57 14 54 12 88 88 S 23 37 29.56 1001 10 16 0.00 0.00
6:53 am 06:53 Cloudy 58 14.4 54 12.2 87 87 S 22 35 29.54 1000 10 16 0.00 0.00
7:29 am 07:29 Partly Cloudy 58 14.4 54 12.2 87 87 S 30 48 29.53 1000 10 16 0.00 0.00
7:45 am 07:45 Mostly Cloudy 58 14.4 54 12.2 87 87 S 24 39 29.56 1001 10 16 0.00 0.00
7:53 am 07:53 Mostly Cloudy 58 14.4 54 12.2 87 87 S 22 35 29.54 1000 10 16 0.00 0.00
8:53 am 08:53 Cloudy with Light Rain 58 14.4 54 12.2 87 87 S 22 35 29.56 1001 10 16 0.00 0.03
9:00 am 09:00 Cloudy with Rain 56 13.3 53 11.7 90 90 SW 20 31 29.59 1002 3 5 0.00 0.03
9:03 am 09:03 Cloudy with Mist and Fog 54 12.2 50 10 87 87 SW 17 28 29.59 1002 2 2 0.01 0.25
9:10 am 09:10 Cloudy with Light Rain 53 11.7 49 9.4 86 86 SSW 14 22 29.59 1002 2 2 0.15 3.81
9:14 am 09:14 Cloudy with Light Rain 52 11.1 49 9.4 89 89 SW 10 17 29.62 1003 3 5 0.16 4.06
9:53 am 09:53 Cloudy 51 10.6 48 8.9 89 89 W 5 7 29.64 1004 10 16 0.18 4.57
10:53 am 10:53 Cloudy 52 11.1 47 8.3 83 83 SSW 3 6 29.67 1005 10 16 0.00 0.00
11:53 am 11:53 Mostly Cloudy 51 10.6 49 9.4 92 92 E 8 13 29.70 1006 10 16 0.00 0.03
12:03 pm 12:03 Mostly Cloudy 51 10.6 48 8.9 89 89 ESE 7 11 29.74 1007 10 16 0.00 0.00
12:53 pm 12:53 Sunny 56 13.3 47 8.3 72 72 Calm 29.74 1007 10 16 0.00 0.00
1:53 pm 13:53 Mostly Sunny 58 14.4 45 7.2 62 62 E 3 6 29.76 1008 10 16 0.00 0.00
2:53 pm 14:53 Mostly Sunny 60 15.6 35 1.7 39 39 NNE 9 15 29.78 1008 10 16 0.00 0.00
3:53 pm 15:53 Sunny 61 16.1 34 1.1 36 36 NNW 8 13 29.80 1009 10 16 0.00 0.00
4:53 pm 16:53 Sunny 60 15.6 29 -1.7 31 31 NW 9 15 29.82 1010 10 16 0.00 0.00
5:53 pm 17:53 Sunny 58 14.4 30 -1.1 35 35 W 10 17 29.84 1011 10 16 0.00 0.00
6:53 pm 18:53 Sunny 56 13.3 28 -2.2 34 34 W 7 11 29.87 1011 10 16 0.00 0.00
7:53 pm 19:53 Clear 52 11.1 27 -2.8 38 38 undefined N/A 29.89 1012 10 16 0.00 0.00
8:53 pm 20:53 Mostly Clear 50 10 25 -3.9 38 38 W 9 15 29.93 1013 10 16 0.00 0.00
9:53 pm 21:53 Clear 48 8.9 25 -3.9 41 41 WSW 3 6 29.97 1015 10 16 0.00 0.00
10:53 pm 22:53 Clear 44 6.7 29 -1.7 55 55 ESE 5 7 30.00 1016 10 16 0.00 0.00
11:53 pm 23:53 Clear 46 7.8 25 -3.9 44 44 WSW 5 7 30.02 1017 10 16 0.00 0.00

Powered by AerisWeather